Weather History for Walhalla, ND

Change the Weather History Date:

Friday, December 13, 2013

  Actual Average (KGAF) Record (KGAF)
Temperature  
Mean Temperature -7 °F -  
Max Temperature -5 °F 20 °F 36 °F (1980)
Min Temperature -9 °F 2 °F -23 °F (1958)
Degree Days  
Heating Degree Days 72    
Moisture  
Dew Point -16 °F    
Average Humidity 70    
Maximum Humidity 77    
Minimum Humidity 65    
Precipitation  
Precipitation 0.00 in - - ()
Sea Level Pressure  
Sea Level Pressure 30.39 in    
Wind  
Wind Speed 9 mph (NNE)    
Max Wind Speed 13 mph    
Max Gust Speed -    
Visibility 9 miles    
Events Snow    
Averages and records for this station are not official NWS values.
T = Trace of Precipitation, MM = Missing Value Source: NWS Daily Summary

Daily Weather History Graph

Daily Weather History Graph

Search for Another Location

Airport:

Trip Planner

Search our weather history database for the weather conditions in past years. The results will help you decide how hot, cold, wet, or windy it might be!

Date:

Astronomy

Dec. 13, 2013 Rise Set
Actual Time 8:17 AM CST 4:34 PM CST
Civil Twilight 7:40 AM CST 5:11 PM CST
Nautical Twilight 6:59 AM CST 5:52 PM CST
Astronomical Twilight 6:21 AM CST 6:30 PM CST
Moon 2:30 PM CST (12/13) 4:27 AM CST (12/13)
Length of Visible Light 9h 31m
Length of Day
8h 17m
Waxing Gibbous, 88% of the Moon is Illuminated
Dec 13
Waxing Gibbous
Dec 17
Full
Dec 25
Last Quarter
Jan 1
New
Jan 7
First Quarter

Hourly Weather History & Observations

Time (CST) Temp. Windchill Dew Point Humidity Pressure Visibility Wind Dir Wind Speed Gust Speed Precip Events Conditions
12:15 AM -5.8 °F -23.4 °F -13.0 °F 71% 30.33 in 10.0 mi NE 10.4 mph - N/A   Overcast
12:35 AM -5.8 °F -23.4 °F -13.0 °F 71% 30.33 in 10.0 mi NE 10.4 mph - N/A   Overcast
12:55 AM -5.8 °F -23.4 °F -13.0 °F 71% 30.33 in 10.0 mi NNE 10.4 mph - N/A   Overcast
1:15 AM -5.8 °F -22.4 °F -13.0 °F 71% 30.34 in 10.0 mi NNE 9.2 mph - N/A   Overcast
1:35 AM -5.8 °F -21.2 °F -13.0 °F 71% 30.34 in 10.0 mi NE 8.1 mph - N/A   Overcast
1:55 AM -5.8 °F -21.2 °F -13.0 °F 71% 30.34 in 3.0 mi NE 8.1 mph - N/A Snow Light Snow
2:15 AM -7.6 °F -20.6 °F -13.0 °F 77% 30.34 in 3.0 mi NE 5.8 mph - N/A Snow Light Snow
2:35 AM -7.6 °F -24.6 °F -13.0 °F 77% 30.34 in 3.0 mi ENE 9.2 mph - N/A   Haze
2:55 AM -7.6 °F -23.4 °F -13.0 °F 77% 30.35 in 3.0 mi NE 8.1 mph - N/A   Haze
3:15 AM -7.6 °F -24.6 °F -13.0 °F 77% 30.34 in 5.0 mi NE 9.2 mph - N/A Snow Light Snow
3:35 AM -7.6 °F -25.7 °F -13.0 °F 77% 30.34 in 6.0 mi NE 10.4 mph - N/A   Haze
3:55 AM -7.6 °F -27.5 °F -13.0 °F 77% 30.34 in 5.0 mi NNE 12.7 mph - N/A   Haze
4:15 AM -7.6 °F -23.4 °F -14.8 °F 71% 30.33 in 9.0 mi NE 8.1 mph - N/A   Overcast
4:35 AM -7.6 °F -24.6 °F -16.6 °F 65% 30.34 in 8.0 mi NNE 9.2 mph - N/A   Overcast
4:55 AM -7.6 °F -25.7 °F -14.8 °F 71% 30.34 in 8.0 mi NNE 10.4 mph - N/A   Overcast
5:15 AM -7.6 °F -26.6 °F -14.8 °F 71% 30.34 in 7.0 mi NNE 11.5 mph - N/A Snow Light Snow
5:35 AM -9.4 °F -26.8 °F -14.8 °F 77% 30.34 in 4.0 mi NNE 9.2 mph - N/A Snow Light Snow
5:55 AM -9.4 °F -28.9 °F -14.8 °F 77% 30.34 in 5.0 mi NNE 11.5 mph - N/A Snow Light Snow
6:15 AM -9.4 °F -27.9 °F -14.8 °F 77% 30.35 in 4.0 mi NNE 10.4 mph - N/A Snow Light Snow
6:35 AM -9.4 °F -24.3 °F -14.8 °F 77% 30.36 in 6.0 mi NE 6.9 mph - N/A   Haze
6:55 AM -9.4 °F -26.8 °F -14.8 °F 77% 30.37 in 5.0 mi NE 9.2 mph - N/A Snow Light Snow
7:15 AM -9.4 °F -25.6 °F -14.8 °F 77% 30.38 in 4.0 mi NE 8.1 mph - N/A Snow Light Snow
7:35 AM -9.4 °F -27.9 °F -16.6 °F 71% 30.38 in 9.0 mi NE 10.4 mph - N/A   Overcast
7:55 AM -9.4 °F -26.8 °F -16.6 °F 71% 30.38 in 10.0 mi NE 9.2 mph - N/A   Overcast
8:15 AM -9.4 °F -27.9 °F -16.6 °F 71% 30.38 in 10.0 mi NE 10.4 mph - N/A   Overcast
8:35 AM -9.4 °F -29.8 °F -16.6 °F 71% 30.39 in 5.0 mi NE 12.7 mph - N/A Snow Light Snow
8:55 AM -9.4 °F -27.9 °F -16.6 °F 71% 30.40 in 4.0 mi NNE 10.4 mph - N/A Snow Light Snow
9:15 AM -9.4 °F -27.9 °F -16.6 °F 71% 30.40 in 10.0 mi NNE 10.4 mph - N/A   Mostly Cloudy
9:35 AM -9.4 °F -28.9 °F -18.4 °F 65% 30.41 in 10.0 mi NNE 11.5 mph - N/A   Overcast
9:55 AM -9.4 °F -29.8 °F -18.4 °F 65% 30.41 in 10.0 mi NNE 12.7 mph - N/A   Overcast
10:15 AM -9.4 °F -28.9 °F -18.4 °F 65% 30.42 in 10.0 mi NE 11.5 mph - N/A   Mostly Cloudy
10:35 AM -9.4 °F -29.8 °F -18.4 °F 65% 30.42 in 10.0 mi NE 12.7 mph - N/A   Partly Cloudy
10:55 AM -9.4 °F -28.9 °F -18.4 °F 65% 30.43 in 10.0 mi NNE 11.5 mph - N/A   Mostly Cloudy
11:15 AM -9.4 °F -28.9 °F -18.4 °F 65% 30.43 in 10.0 mi NNE 11.5 mph - N/A   Scattered Clouds
11:35 AM -9.4 °F -27.9 °F -18.4 °F 65% 30.42 in 10.0 mi NNE 10.4 mph - N/A   Scattered Clouds
11:55 AM -9.4 °F -27.9 °F -18.4 °F 65% 30.42 in 10.0 mi NNE 10.4 mph - N/A   Mostly Cloudy
12:15 PM -9.4 °F -27.9 °F -18.4 °F 65% 30.42 in 10.0 mi NNE 10.4 mph - N/A   Mostly Cloudy
12:35 PM -9.4 °F -26.8 °F -18.4 °F 65% 30.41 in 10.0 mi NNE 9.2 mph - N/A   Scattered Clouds
12:55 PM -9.4 °F -29.8 °F -18.4 °F 65% 30.42 in 10.0 mi NNE 12.7 mph - N/A   Scattered Clouds
1:15 PM -9.4 °F -27.9 °F -18.4 °F 65% 30.42 in 10.0 mi NNE 10.4 mph - N/A   Mostly Cloudy
1:35 PM -9.4 °F -27.9 °F -16.6 °F 71% 30.42 in 10.0 mi NNE 10.4 mph - N/A   Mostly Cloudy
1:55 PM -9.4 °F -28.9 °F -18.4 °F 65% 30.41 in 10.0 mi NNE 11.5 mph - N/A   Mostly Cloudy
2:15 PM -9.4 °F -26.8 °F -18.4 °F 65% 30.41 in 10.0 mi NNE 9.2 mph - N/A   Overcast
2:35 PM -9.4 °F -26.8 °F -18.4 °F 65% 30.41 in 10.0 mi NNE 9.2 mph - N/A   Overcast
2:55 PM -9.4 °F -26.8 °F -16.6 °F 71% 30.41 in 10.0 mi NNE 9.2 mph - N/A   Overcast
3:15 PM -9.4 °F -28.9 °F -16.6 °F 71% 30.41 in 10.0 mi NNE 11.5 mph - N/A   Overcast
3:35 PM -9.4 °F -26.8 °F -16.6 °F 71% 30.41 in 10.0 mi NNE 9.2 mph - N/A   Overcast
3:55 PM -9.4 °F -26.8 °F -16.6 °F 71% 30.42 in 10.0 mi NNE 9.2 mph - N/A   Overcast
4:15 PM -9.4 °F -26.8 °F -16.6 °F 71% 30.43 in 10.0 mi NNE 9.2 mph - N/A   Overcast
4:35 PM -9.4 °F -25.6 °F -16.6 °F 71% 30.44 in 10.0 mi NNE 8.1 mph - N/A   Overcast
4:55 PM -9.4 °F -26.8 °F -16.6 °F 71% 30.44 in 10.0 mi North 9.2 mph - N/A   Overcast
5:15 PM -9.4 °F -26.8 °F -16.6 °F 71% 30.44 in 10.0 mi NNE 9.2 mph - N/A   Overcast
5:35 PM -9.4 °F -28.9 °F -16.6 °F 71% 30.44 in 10.0 mi NNE 11.5 mph - N/A   Overcast
5:55 PM -9.4 °F -26.8 °F -16.6 °F 71% 30.44 in 10.0 mi NNE 9.2 mph - N/A   Overcast
6:15 PM -9.4 °F -26.8 °F -16.6 °F 71% 30.44 in 10.0 mi NNE 9.2 mph - N/A   Overcast
6:35 PM -9.4 °F -24.3 °F -16.6 °F 71% 30.45 in 10.0 mi NNE 6.9 mph - N/A   Overcast
6:55 PM -9.4 °F -25.6 °F -16.6 °F 71% 30.44 in 10.0 mi NNE 8.1 mph - N/A   Overcast
7:15 PM -9.4 °F -22.7 °F -16.6 °F 71% 30.43 in 10.0 mi NE 5.8 mph - N/A   Overcast
7:35 PM -9.4 °F -18.6 °F -16.6 °F 71% 30.43 in 10.0 mi NNE 3.5 mph - N/A   Mostly Cloudy
7:55 PM -9.4 °F -22.7 °F -16.6 °F 71% 30.43 in 10.0 mi NNE 5.8 mph - N/A   Overcast
8:15 PM -9.4 °F -24.3 °F -16.6 °F 71% 30.44 in 10.0 mi NNE 6.9 mph - N/A   Overcast
8:35 PM -9.4 °F -24.3 °F -16.6 °F 71% 30.44 in 10.0 mi NE 6.9 mph - N/A   Overcast
8:55 PM -9.4 °F -20.9 °F -16.6 °F 71% 30.42 in 10.0 mi NE 4.6 mph - N/A   Overcast
9:15 PM -9.4 °F -20.9 °F -16.6 °F 71% 30.41 in 10.0 mi NE 4.6 mph - N/A   Overcast
9:35 PM -9.4 °F -20.9 °F -16.6 °F 71% 30.41 in 10.0 mi NE 4.6 mph - N/A   Overcast
9:55 PM -9.4 °F -22.7 °F -16.6 °F 71% 30.41 in 10.0 mi NNE 5.8 mph - N/A   Overcast
10:15 PM -9.4 °F -18.6 °F -16.6 °F 71% 30.41 in 10.0 mi NE 3.5 mph - N/A   Overcast
10:35 PM -9.4 °F - -16.6 °F 71% 30.41 in 10.0 mi Calm Calm - N/A   Overcast
10:55 PM -9.4 °F - -16.6 °F 71% 30.41 in 10.0 mi Calm Calm - N/A   Overcast
11:15 PM -7.6 °F - -16.6 °F 65% 30.41 in 10.0 mi Calm Calm - N/A   Overcast
11:35 PM -7.6 °F -20.6 °F -16.6 °F 65% 30.41 in 10.0 mi North 5.8 mph - N/A   Overcast
11:55 PM -7.6 °F -18.8 °F -14.8 °F 71% 30.40 in 10.0 mi North 4.6 mph - N/A Snow Light Snow